SCP
0 0 0 0 0 0 0 0 0 0 0 0 0 0 0 0 0 0 0 0 0 0 0 0 0 0 0 0 0 0 0 0 0 0 0 0 0 0
0 0 0 0 0 0 0 0 0 0 0 0 0 0 0 0 0 0 0 0 0 0 0 0 0 0 0 0 0 0 0 0 0 0 0 0 0 0
0 0 0 0 0 0 0 0 0 0 0 0 0 0 0 0 0 0 0 0 0 0 0 0 0 0 0 0 0 0 0 0 0 0 0 0 0 0
0 0 0 0 0 0 0 0 0 0 0 0 0 0 0 0 0 0 0 0 0 0 0 0 0 0 0 0 0 0 0 0 0 0 0 0 0 0
0 0 0 0 0 0 0 0 0 0 0 0 0 0 0 0 0 0 0 0 0 0 0 0 0 0 0 0 0 0 0 0 0 0 0 0 0 0
0 0 0 0 0 0 0 0 0 0 0 0 0 0 0 0 0 0 0 0 0 0 0 0 0 0 0 0 0 0 0 0 0 0 0 0 0 0
0 0 0 0 0 0 0 0 0 0 0 0 0 0 0 0 0 0 0 0 0 0 0 0 0 0 0 0 0 0 0 0 0 0 0 0 0 0
0 0 0 0 0 0 0 0 0 0 0 0 0 0 0 0 0 0 0 0 0 0 0 0 0 0 0 0 0 0 0 0 0 0 0 0 0 0
0 0 0 0 0 0 0 0 0 0 0 0 0 0 0 0 0 0 0 0 0 0 0 0 0 0 0 0 0 0 0 0 0 0 0 0 0 0
0 0 0 0 0 0 0 0 0 0 0 0 0 0 0 0 0 0 0 0 0 0 0 0 0 0 0 0 0 0 0 0 0 0 0 0 0 0
0 0 0 0 0 0 0 0 0 0 0 0 0 0 0 0 0 0 0 0 0 0 0 0 0 0 0 0 0 0 0 0 0 0 0 0 0 0
0 0 0 0 0 0 0 0 0 0 0 0 0 0 0 0 0 0 0 0 0 0 0 0 0 0 0 0 0 0 0 0 0 0 0 0 0 0
0 0 0 0 0 0 0 0 0 0 0 0 0 0 0 0 0 0 0 0 0 0 0 0 0 0 0 0 0 0 0 0 0 0 0 0 0 0
0 0 0 0 0 0 0 0 0 0 0 0 0 0 0 0 0 0 0 0 0 0 0 0 0 0 0 0 0 0 0 0 0 0 0 0 0 0
0 0 0 0 0 0 0 0 0 0 0 0 0 0 0 0 0 0 0 0 0 0 0 0 0 0 0 0 0 0 0 0 0 0 0 0 0 0
0 0 0 0 0 0 0 0 0 0 0 0 0 0 0 0 0 0 0 0 0 0 0 0 0 0 0 0 0 0 0 0 0 0 0 0 0 0
0 0 0 0 0 0 0 0 0 0 0 0 0 0 0 0 0 0 0 0 0 0 0 0 0 0 0 0 0 0 0 0 0 0 0 0 0 0
0 0 0 0 0 0 0 0 0 0 0 0 0 0 0 0 0 0 0 0 0 0 0 0 0 0 0 0 0 0 0 0 0 0 0 0 0 0
0 0 0 0 0 0 0 0 0 0 0 0 0 0 0 0 0 0 0 0 0 0 0 0 0 0 0 0 0 0 0 0 0 0 0 0 0 0
0 0 0 0 0 0 0 0 0 0 0 0 0 0 0 0 0 0 0 0 0 0 0 0 0 0 0 0 0 0 0 0 0 0 0 0 0 0
0 0 0 0 0 0 0 0 0 0 0 0 0 0 0 0 0 0 0 0 0 0 0 0 0 0 0 0 0 0 0 0 0 0 0 0 0 0
0 0 0 0 0 0 0 0 0 0 0 0 0 0 0 0 0 0 0 0 0 0 0 0 0 0 0 0 0 0 0 0 0 0 0 0 0 0
0 0 0 0 0 0 0 0 0 0 0 0 0 0 0 0 0 0 0 0 0 0 0 0 0 0 0 0 0 0 0 0 0 0 0 0 0 0
Wind_Speed
2 1 1 1 1 1 1 1 1 2 2 1 1 1 2 3 6 4 3 6 7 8 7 7 7 6 6 5 5 6 6 6 8 9 9 10 11 12
1 0 1 1 1 1 1 2 2 2 1 1 0 0 1 1 4 3 3 6 7 8 9 8 8 7 6 6 6 6 6 6 6 8 9 10 11 12
1 1 1 1 1 1 1 2 2 1 1 1 0 0 2 2 2 1 2 3 4 8 8 9 9 8 7 7 6 6 6 6 7 8 8 9 10 10
1 1 1 1 1 1 2 2 1 1 0 0 1 0 1 2 1 1 1 2 2 5 7 8 9 8 8 8 7 7 7 6 7 8 8 8 9 10
1 1 1 1 1 1 2 2 1 1 0 1 1 0 0 1 1 1 2 1 3 2 5 6 7 8 8 8 8 7 7 7 8 8 8 7 8 8
0 0 1 1 1 2 1 2 1 1 1 0 1 0 0 0 1 1 1 1 2 3 2 2 4 7 7 8 8 8 8 8 8 8 8 8 8 8
0 0 0 1 1 0 0 1 1 1 1 1 1 1 1 1 1 1 2 1 2 2 1 2 1 2 3 6 7 8 8 8 8 8 8 8 8 8
0 1 1 2 3 3 2 2 1 0 1 1 1 1 1 1 1 2 1 2 2 2 2 3 2 2 3 3 5 8 8 8 8 8 8 8 8 8
0 0 1 1 2 1 1 2 1 1 1 1 1 1 1 1 1 2 2 2 3 3 2 3 2 2 3 3 3 5 7 7 8 8 9 9 9 9
1 1 1 1 2 1 0 1 1 0 1 1 1 1 2 1 1 2 3 3 3 3 2 2 2 3 4 2 4 6 7 8 8 9 9 10 9 9
2 2 1 1 2 2 1 0 0 0 1 1 1 2 3 3 2 1 2 2 3 3 1 1 2 3 3 2 4 6 8 9 9 10 10 10 10 8
1 2 3 2 2 2 0 1 1 1 2 2 2 3 3 4 4 3 2 2 2 3 2 1 2 2 3 2 2 2 4 7 9 10 10 10 9 5
1 1 2 3 2 1 1 0 2 2 2 2 2 2 2 2 2 2 2 2 2 3 3 2 2 2 2 3 3 3 3 3 4 5 8 10 10 7
1 1 2 1 1 2 2 3 4 3 2 2 2 1 1 1 1 2 3 3 3 4 4 2 2 2 3 4 4 3 3 3 3 3 4 6 8 10
1 1 1 2 3 3 5 5 3 2 2 2 2 1 1 1 1 2 2 3 3 5 4 4 3 3 3 4 4 4 4 3 3 3 2 3 3 3
0 0 2 4 5 4 3 4 3 3 2 2 2 1 1 1 2 2 2 2 2 3 4 4 4 4 3 4 4 4 3 3 3 3 3 3 2 3
2 1 2 2 2 2 2 2 2 1 1 2 2 1 1 2 2 2 2 2 3 3 2 2 3 3 4 4 4 4 4 4 3 3 3 3 3 3
2 2 2 2 1 1 1 1 1 1 1 1 1 2 2 2 2 2 2 2 2 3 3 3 2 3 3 3 4 4 4 4 4 3 3 3 4 3
2 3 2 1 1 1 1 1 1 1 1 1 2 2 2 2 2 2 2 2 3 3 3 3 2 3 4 5 4 4 4 4 4 3 3 3 4 3
3 3 1 1 1 1 1 1 1 1 1 2 2 2 2 3 3 3 3 3 4 4 3 3 2 2 3 5 5 4 5 4 4 4 4 3 3 2
3 2 1 1 1 1 1 1 1 1 1 2 2 2 3 3 3 3 3 4 4 4 4 3 3 4 4 3 4 4 3 4 4 3 3 3 3 3
2 1 1 1 1 1 1 2 2 1 1 2 2 2 3 3 3 4 4 4 4 3 4 3 3 3 3 4 5 4 4 3 3 4 4 4 3 3
2 2 1 2 1 1 1 2 2 2 2 2 2 3 3 4 3 4 4 4 4 4 4 4 3 3 3 4 4 4 5 4 2 2 3 4 5 5
Wind_Direction
266 276 280 262 280 272 268 267 257 268 261 243 213 194 155 141 159 165 162 179 188 194 202 209 215 218 221 228 236 240 244 246 245 241 241 242 243 246
254 316 306 287 244 246 251 262 264 249 258 268 235 198 146 154 163 173 178 186 200 205 208 213 212 214 220 225 232 236 241 247 252 248 247 246 244 245
275 251 258 303 303 293 273 265 275 277 253 306 15 64 125 141 152 192 198 197 205 210 211 213 211 213 218 225 231 236 242 243 250 250 251 252 250 248
252 275 276 265 268 297 289 290 289 284 150 329 354 36 142 151 167 217 256 237 224 210 209 211 210 212 217 224 229 233 239 242 248 250 249 251 253 250
217 234 262 275 276 275 293 302 302 312 147 178 265 239 141 122 105 323 318 323 297 242 214 213 213 215 219 221 226 231 235 239 245 246 246 246 250 250
171 128 319 297 269 272 281 317 323 324 304 249 273 325 68 13 64 350 313 319 307 307 309 263 223 217 223 227 229 231 232 236 242 246 245 244 245 247
131 161 172 104 92 102 304 6 339 350 349 358 341 14 20 17 5 315 302 315 308 312 328 300 262 235 236 240 235 228 231 235 239 241 241 241 241 242
198 191 185 154 123 118 107 76 56 7 3 354 336 355 351 7 348 314 312 319 307 308 314 296 284 266 257 241 222 220 227 235 238 238 236 238 239 240
8 68 353 67 82 85 111 135 89 320 242 258 284 296 315 322 327 319 312 304 281 278 281 286 293 278 272 277 229 224 227 233 239 239 236 236 238 240
43 73 96 63 25 38 30 72 103 44 282 236 249 293 307 320 293 273 268 282 275 278 277 274 274 276 285 268 240 229 232 238 239 239 238 239 242 245
60 40 77 88 59 38 55 36 51 327 304 275 255 269 280 275 269 286 281 278 291 289 277 272 277 282 279 260 243 240 245 243 243 241 239 240 242 245
104 85 74 79 74 55 40 1 329 302 310 297 265 260 252 249 240 229 246 265 285 292 295 286 289 297 292 272 268 245 249 249 248 247 245 244 240 234
115 102 99 104 88 19 308 248 251 276 284 276 261 233 224 235 216 211 220 233 261 273 291 300 298 301 284 293 291 274 252 249 239 245 244 243 236 224
50 87 106 137 266 273 266 266 274 281 263 268 273 272 239 243 243 239 229 226 229 245 265 271 278 292 297 296 295 289 281 270 257 245 236 236 235 233
357 11 219 233 259 260 255 265 274 262 256 260 267 265 256 247 250 259 259 249 247 253 255 241 246 267 276 283 290 294 296 291 279 274 261 244 238 227
357 259 240 251 265 264 248 239 231 237 247 259 269 265 255 261 266 265 264 261 263 264 252 244 240 245 263 272 277 286 289 286 289 285 279 273 257 232
331 275 251 234 237 240 232 220 220 235 257 279 284 295 299 295 282 269 271 281 279 282 284 266 253 242 241 261 277 280 283 284 281 274 274 274 264 255
300 276 265 247 249 267 274 276 276 306 311 301 301 301 299 296 292 289 278 278 287 292 293 288 288 285 279 269 248 272 280 281 284 278 269 266 268 260
265 272 273 280 320 331 320 319 338 355 335 319 306 299 300 296 291 296 299 296 290 284 282 282 286 294 297 297 283 249 273 283 284 280 274 267 264 260
260 272 289 322 339 334 335 341 346 1 346 316 304 307 313 310 310 312 311 305 297 291 288 285 283 281 281 286 289 282 257 270 278 282 280 273 269 262
259 267 306 330 340 348 343 330 324 326 326 307 309 316 313 305 303 306 303 296 290 288 289 286 276 268 265 276 284 284 281 261 262 273 284 289 286 277
309 311 323 330 329 336 328 321 320 322 319 309 312 311 305 297 301 300 297 294 290 288 290 288 286 283 280 282 287 291 294 293 278 282 279 266 267 271
317 333 354 342 334 339 334 327 324 318 327 330 321 312 306 299 294 293 294 294 298 300 305 306 305 295 288 287 291 297 302 301 303 304 301 284 257 259